[[{"header":{"parameterUnit":"m.s-1","parameterCategory":1,"la1":30.2991,"la2":30.254,"lo1":-89.0895,"lo2":-89.0444,"dy":0.0017,"dx":0.0017,"nx":28,"ny":28,"refTime":"2025-03-09T03:00:00:Z","depth":0,"parameterNumber":2,"parameterNumberName":"U-component_of_WINDS"},"data":[0,0,0,0,0,0,0,0,0,0,0,0,0,0,0,0,0,0,0,0,0,0,0,0,0,0,0,0,0,0,0,0,0,0,0,0,0,0,0,0,0,0,0,0,0,0,0,0,0,0,0,0,0,0,0,0,0,0,5.1025,5.1025,0,5.1086,5.1087,5.1087,5.0989,5.0986,5.0983,5.0979,5.1043,5.1048,5.1053,0,0,0,0,0,0,0,0,0,0,0,0,0,5.0825,5.083,5.1025,5.1025,5.1026,5.1086,5.1087,5.1087,5.099,5.0986,5.0982,5.0978,5.1042,5.1047,5.1053,0,0,0,0,0,0,0,0,0,0,0,0,0,5.0902,5.0831,5.1025,5.0985,5.0982,5.1086,5.1087,5.1088,5.0991,5.0986,5.0981,5.0976,5.104,5.1047,5.1054,5.12,0,0,5.1076,5.1079,0,0,0,0,0,0,0,0,5.0898,5.0909,5.099,5.0988,5.0984,5.1025,5.104,5.1125,5.0992,5.0987,5.0979,5.0973,5.1041,5.1048,5.1071,5.1203,5.1206,5.1077,5.1081,5.1085,5.1087,0,0,0,0,0,0,0,5.0893,5.0906,5.1049,5.0991,5.0988,5.0964,5.097,5.1056,5.1042,5.0987,5.098,5.0989,5.1039,5.1064,5.1072,5.1207,5.1077,5.1083,5.1088,5.1091,5.1464,5.1469,0,0,0,0,0,0,5.0892,5.0902,5.1047,5.1051,5.0928,5.0972,5.0978,5.1017,5.1041,5.104,5.0993,5.0984,5.1054,5.1063,5.1073,5.1247,5.1084,5.1091,5.1095,5.1458,5.1465,5.1471,0,0,0,0,0,0,5.0888,5.0906,5.1044,5.0975,5.0991,5.0981,5.1025,5.1021,5.1046,5.1045,5.1042,5.1021,5.105,5.1063,5.117,5.1248,5.1095,5.1101,5.1452,5.146,5.1468,5.1595,0,0,0,0,0,0,5.0883,5.0905,5.096,5.0977,5.0995,5.1139,5.103,5.1026,5.1058,5.1047,5.1071,5.107,5.1047,5.1159,5.1177,5.1255,5.1107,5.1445,5.1456,5.1466,5.1584,5.1607,5.1626,0,0,0,0,0,5.0876,5.0993,5.0963,5.0981,5.1063,5.1144,5.1154,5.1126,5.1065,5.1121,5.1121,5.1069,5.1237,5.1171,5.119,5.1272,5.144,5.1453,5.1465,5.1574,5.1602,5.1626,0,0,0,0,0,0,5.0986,5.0994,5.0961,5.1087,5.1116,5.1127,5.1196,5.1156,5.1203,5.119,5.1153,5.116,5.1274,5.1283,5.121,5.1415,5.1328,5.1345,5.1405,5.1431,5.1452,5.1448,5.1113,0,0,0,0,0,5.1024,5.1089,5.1093,5.1204,5.122,5.1206,5.124,5.1216,5.1244,5.1256,5.1263,5.1293,5.1352,5.1392,5.1447,5.1585,5.1589,5.165,5.1671,5.1689,5.1704,5.1779,5.1806,5.1512,5.1512,5.1512,0,0,5.1105,5.1118,5.1161,5.1227,5.1246,5.1314,5.1217,5.1293,5.1344,5.1267,5.1369,5.1376,5.1406,5.153,5.1584,5.1541,5.1786,5.1705,5.1719,5.1724,5.1795,5.1823,5.1847,5.1521,5.1519,5.1518,0,0,5.1288,5.1304,5.1398,5.142,5.145,5.144,5.1463,5.1481,5.1483,5.1584,5.1528,5.1589,5.1691,5.1716,5.1742,5.1936,5.1891,5.1954,5.2065,5.2139,5.2162,5.2182,5.2252,5.2278,5.1969,5.197,5.197,0,5.1385,5.1485,5.1452,5.1533,5.1564,5.1498,5.1594,5.1616,5.1663,5.1687,5.1637,5.1766,5.1782,5.191,5.1958,5.1981,5.2006,5.1952,5.2161,5.2181,5.22,5.2266,5.2293,5.1977,5.1977,5.1976,5.1975,0,5.1603,5.1674,5.1747,5.1794,5.1833,5.1921,5.1902,5.1946,5.1919,5.1915,5.2019,5.2036,5.2094,5.2122,5.2096,5.2248,5.222,5.2167,5.2079,5.2236,5.2298,5.2323,5.1988,5.1986,5.1983,5.1981,0,0,5.1856,5.1884,5.1912,5.1933,5.1962,5.2016,5.2102,5.2158,5.2197,5.2232,5.2304,5.2393,5.2344,5.2373,5.235,5.2414,5.2568,5.2353,5.2353,5.2393,5.2738,5.2778,5.2808,5.2538,5.2543,5.2547,5.2735,0,5.2039,5.2186,5.2159,5.2303,5.2368,5.2307,5.2382,5.2409,5.2408,5.2464,5.2462,5.2527,5.2456,5.2474,5.2535,5.2537,5.2637,5.2522,5.2606,5.2609,5.26,5.284,5.2883,5.306,5.2759,5.2763,5.2766,0,5.2271,5.2315,5.2465,5.2485,5.2511,5.2579,5.2629,5.2683,5.2712,5.2707,5.2741,5.2706,5.2792,5.2703,5.2822,5.2745,5.2778,5.2784,5.279,5.2797,5.2697,5.2854,5.3116,5.3143,5.2804,5.2801,5.2798,0,5.2441,5.2538,5.264,5.266,5.2686,5.2735,5.2748,5.2773,5.2808,5.2852,5.2875,5.2929,5.2959,5.3001,5.2982,5.2919,5.3106,5.3014,5.3104,5.3105,5.3146,5.3144,5.3417,5.3167,5.3167,5.3166,5.3165,0,5.2648,5.2743,5.2718,5.2781,5.2886,5.2855,5.2959,5.2965,5.2988,5.3052,5.3002,5.3064,5.3034,5.3094,5.3079,5.3181,5.3194,5.3193,5.3188,5.3198,5.3198,5.3219,5.3206,5.3173,5.3172,5.317,5.3169,0,5.2856,5.2843,5.2951,5.2967,5.2973,5.305,5.3063,5.3123,5.3118,5.32,5.3218,5.3211,5.3278,5.3263,5.3337,5.3328,5.3456,5.3435,5.3446,5.3441,5.3532,5.3524,5.3829,5.3868,5.3592,5.3594,5.3597,0,5.2989,5.3061,5.3084,5.3124,5.3141,5.3204,5.3241,5.3213,5.3253,5.3293,5.3349,5.3412,5.3461,5.3572,5.3574,5.3631,5.3612,5.3715,5.362,5.3628,5.3614,5.3611,5.3618,5.3734,5.3737,5.3739,5.3741,0,5.3228,5.3218,5.3272,5.3324,5.3369,5.3409,5.3445,5.348,5.3456,5.3503,5.3572,5.361,5.3686,5.375,5.3803,5.3817,5.3777,5.3771,5.3795,5.3806,5.381,5.381,5.3498,5.3764,5.3762,5.376,5.3759,5.3758,5.3403,5.3464,5.349,5.3552,5.3576,5.3611,5.3668,5.3671,5.3727,5.3787,5.3767,5.3846,5.3875,5.3942,5.3962,5.4024,5.3985,5.402,5.4029,5.4038,5.4049,5.38,5.4033,5.4033,5.4032,5.4031,5.4031,0,5.3639,5.3653,5.3711,5.3762,5.3812,5.3768,5.3805,5.385,5.392,5.395,5.3999,5.4079,5.4141,5.4148,5.4207,5.4255,5.4238,5.4272,5.4268,5.4272,5.408,5.4054,5.4284,5.4284,5.4284,5.4284,5.4284,5.4284,5.3768,5.3869,5.3863,5.3976,5.3989,5.4066,5.4091,5.4123,5.4147,5.4238,5.4289,5.4293,5.4315,5.4375,5.443,5.4431,5.4455,5.4496,5.449,5.4311,5.4285,5.4261,5.4236,5.4502,5.4502,5.4677,5.4679,5.468]},{"header":{"parameterUnit":"m.s-1","parameterCategory":1,"la1":30.2991,"la2":30.254,"lo1":-89.0895,"lo2":-89.0444,"dy":0.0017,"dx":0.0017,"nx":28,"ny":28,"refTime":"2025-03-09T03:00:00:Z","depth":0,"parameterNumber":3,"parameterNumberName":"V-component_of_WINDS"},"data":[0,0,0,0,0,0,0,0,0,0,0,0,0,0,0,0,0,0,0,0,0,0,0,0,0,0,0,0,0,0,0,0,0,0,0,0,0,0,0,0,0,0,0,0,0,0,0,0,0,0,0,0,0,0,0,0,0,0,-3.9082,-3.9084,0,-3.9232,-3.9234,-3.9235,-3.9241,-3.9239,-3.9237,-3.9236,-3.9388,-3.9393,-3.9399,0,0,0,0,0,0,0,0,0,0,0,0,0,-3.88,-3.8805,-3.9082,-3.9084,-3.9086,-3.9232,-3.9234,-3.9236,-3.9241,-3.9239,-3.9237,-3.9235,-3.9386,-3.9393,-3.94,0,0,0,0,0,0,0,0,0,0,0,0,0,-3.8933,-3.8807,-3.9082,-3.9106,-3.911,-3.9231,-3.9234,-3.9236,-3.9242,-3.9239,-3.9236,-3.9234,-3.9384,-3.9392,-3.9401,-3.9508,0,0,-3.9427,-3.9431,0,0,0,0,0,0,0,0,-3.8926,-3.8944,-3.9101,-3.9105,-3.9109,-3.9215,-3.919,-3.9327,-3.9243,-3.9192,-3.9236,-3.9233,-3.9333,-3.9345,-3.9379,-3.9515,-3.9521,-3.9428,-3.9433,-3.9436,-3.9439,0,0,0,0,0,0,0,-3.8917,-3.8937,-3.9141,-3.9103,-3.9108,-3.911,-3.9126,-3.9216,-3.9275,-3.9196,-3.9197,-3.9214,-3.9334,-3.9371,-3.9383,-3.9523,-3.9427,-3.9435,-3.944,-3.9444,-3.9756,-3.9759,0,0,0,0,0,0,-3.8903,-3.893,-3.9136,-3.9146,-3.9009,-3.9117,-3.9135,-3.9184,-3.9274,-3.9286,-3.9217,-3.9214,-3.9358,-3.9373,-3.9388,-3.9521,-3.9436,-3.9444,-3.9449,-3.9753,-3.9757,-3.976,0,0,0,0,0,0,-3.8897,-3.8921,-3.913,-3.9038,-3.9065,-3.9125,-3.918,-3.9188,-3.9225,-3.929,-3.93,-3.9243,-3.9356,-3.9376,-3.9478,-3.9526,-3.9448,-3.9456,-3.9749,-3.9754,-3.9759,-3.9785,0,0,0,0,0,0,-3.8888,-3.8919,-3.896,-3.9039,-3.907,-3.9218,-3.9182,-3.9193,-3.924,-3.9238,-3.9318,-3.9328,-3.9355,-3.9466,-3.9487,-3.9536,-3.9463,-3.9745,-3.9752,-3.9757,-3.9781,-3.9791,-3.9799,0,0,0,0,0,-3.8878,-3.8961,-3.8962,-3.8987,-3.9122,-3.9221,-3.9239,-3.9268,-3.9243,-3.9286,-3.9328,-3.9326,-3.9517,-3.9476,-3.95,-3.9553,-3.9743,-3.975,-3.9757,-3.9776,-3.9789,-3.9799,0,0,0,0,0,0,-3.8885,-3.8971,-3.8974,-3.9084,-3.9145,-3.9222,-3.9275,-3.928,-3.9349,-3.9344,-3.9378,-3.9396,-3.9498,-3.9536,-3.9488,-3.9662,-3.9627,-3.9639,-3.9634,-3.9646,-3.9655,-3.9644,-3.947,0,0,0,0,0,-3.8899,-3.8972,-3.9044,-3.9134,-3.9165,-3.9215,-3.9259,-3.9277,-3.9341,-3.9367,-3.9417,-3.9479,-3.9554,-3.9602,-3.9674,-3.9786,-3.9804,-3.9835,-3.9844,-3.9851,-3.9861,-3.9925,-3.994,-3.9784,-3.9784,-3.9784,0,0,-3.8929,-3.8986,-3.9029,-3.9137,-3.9186,-3.9262,-3.9237,-3.9316,-3.9373,-3.9379,-3.9479,-3.9518,-3.959,-3.9698,-3.9749,-3.9733,-3.9908,-3.986,-3.9865,-3.9872,-3.9934,-3.9949,-3.9962,-3.9789,-3.9788,-3.9787,0,0,-3.9022,-3.9072,-3.9154,-3.9204,-3.928,-3.9313,-3.9333,-3.941,-3.9436,-3.9537,-3.9544,-3.9611,-3.9738,-3.979,-3.9833,-3.9948,-3.9949,-3.9971,-4.0019,-4.0081,-4.0093,-4.0104,-4.0146,-4.0161,-3.9981,-3.9981,-3.9981,0,-3.905,-3.9164,-3.9195,-3.9276,-3.9324,-3.9334,-3.9417,-3.9465,-3.956,-3.9593,-3.9574,-3.9735,-3.9784,-3.9906,-3.9934,-3.9968,-3.9992,-3.9962,-4.0089,-4.01,-4.0111,-4.0152,-4.0167,-3.9983,-3.9983,-3.9982,-3.9982,0,-3.9195,-3.9273,-3.933,-3.9423,-3.9477,-3.9559,-3.9603,-3.9654,-3.9668,-3.9703,-3.9807,-3.9867,-3.9952,-3.9982,-3.9995,-4.0106,-4.0094,-4.0082,-4.0047,-4.0128,-4.0166,-4.0182,-3.9986,-3.9985,-3.9985,-3.9984,0,0,-3.9295,-3.9406,-3.9426,-3.9469,-3.9554,-3.9616,-3.9699,-3.9783,-3.9826,-3.9892,-3.9963,-4.0071,-4.0061,-4.011,-4.013,-4.0184,-4.0273,-4.0165,-4.0168,-4.0184,-4.04,-4.0409,-4.0427,-4.0275,-4.0278,-4.028,-4.0395,0,-3.9398,-3.9546,-3.9577,-3.9705,-3.9779,-3.9791,-3.9863,-3.9923,-3.9959,-4.0027,-4.0066,-4.0143,-4.0123,-4.0153,-4.0207,-4.0251,-4.0317,-4.0243,-4.0341,-4.0344,-4.0323,-4.0447,-4.0456,-4.0561,-4.041,-4.0412,-4.0414,0,-3.9538,-3.9608,-3.9743,-3.9821,-3.9853,-3.9917,-3.9998,-4.0063,-4.0132,-4.0154,-4.021,-4.0225,-4.0312,-4.0273,-4.0394,-4.0343,-4.0385,-4.0413,-4.0418,-4.0428,-4.0384,-4.0461,-4.0595,-4.0611,-4.0438,-4.0436,-4.0435,0,-3.9599,-3.9727,-3.9825,-3.9862,-3.9954,-3.9999,-4.004,-4.0106,-4.0156,-4.0226,-4.0259,-4.0338,-4.0382,-4.0443,-4.0479,-4.0448,-4.0598,-4.0562,-4.0619,-4.0618,-4.065,-4.0648,-4.0793,-4.0677,-4.0676,-4.0676,-4.0676,0,-3.9711,-3.9793,-3.9854,-3.9914,-4.0007,-4.0043,-4.0135,-4.0175,-4.0235,-4.0303,-4.0318,-4.0383,-4.0426,-4.0497,-4.0525,-4.0622,-4.0641,-4.0662,-4.0669,-4.0661,-4.0659,-4.0689,-4.0683,-4.068,-4.0679,-4.0678,-4.0678,0,-3.9794,-3.9838,-3.9946,-4.0025,-4.0047,-4.0112,-4.0181,-4.024,-4.0276,-4.0363,-4.0386,-4.0443,-4.0527,-4.057,-4.0674,-4.0693,-4.0802,-4.0804,-4.0779,-4.0782,-4.0837,-4.0832,-4.1008,-4.1033,-4.0899,-4.09,-4.0901,0,-3.9863,-3.9927,-4.0014,-4.0061,-4.0103,-4.0179,-4.023,-4.0268,-4.0321,-4.0406,-4.0455,-4.054,-4.061,-4.0744,-4.0795,-4.0875,-4.088,-4.0936,-4.0892,-4.0882,-4.0882,-4.0878,-4.0885,-4.0943,-4.0945,-4.0946,-4.0947,0,-3.9981,-4.0,-4.0072,-4.0154,-4.0214,-4.028,-4.0345,-4.0383,-4.0432,-4.049,-4.0577,-4.0631,-4.0739,-4.0823,-4.0908,-4.095,-4.0957,-4.096,-4.0978,-4.0971,-4.0954,-4.0965,-4.0801,-4.0956,-4.0955,-4.0954,-4.0954,-4.0954,-4.0059,-4.0118,-4.0188,-4.027,-4.0323,-4.0383,-4.0444,-4.0488,-4.0561,-4.0652,-4.0671,-4.0763,-4.0832,-4.0947,-4.0992,-4.1065,-4.1052,-4.1077,-4.1084,-4.109,-4.1093,-4.0943,-4.108,-4.108,-4.1079,-4.1079,-4.1079,0,-4.0179,-4.0225,-4.03,-4.0391,-4.0455,-4.0457,-4.0529,-4.0583,-4.0664,-4.0728,-4.0798,-4.0898,-4.0981,-4.1039,-4.1123,-4.1171,-4.1176,-4.1192,-4.1189,-4.1199,-4.1099,-4.1075,-4.1186,-4.1186,-4.1186,-4.1186,-4.1186,-4.1186,-4.0248,-4.0347,-4.0375,-4.0501,-4.0547,-4.0638,-4.068,-4.0736,-4.0788,-4.09,-4.0969,-4.1007,-4.1069,-4.1158,-4.1235,-4.125,-4.128,-4.1296,-4.1311,-4.1217,-4.1205,-4.1195,-4.1173,-4.1302,-4.1302,-4.1405,-4.1406,-4.1407]}]]